Suomi 100 (43804 NORAD) Tracking and Keplerian Element Data

This shows tracking and keplerian element data for the satellite.

Feedback or suggestion? Click here.




ElementValue
Catalog43804
NameSuomi 100
Epoch Orbit673
Epoch Day17.79171697
Epoch Year2019
RAAN91.4926
Inclination97.7605
Eccentricity0.0016657
Argument of Perigee114.4787
Mean Anonmoly245.8172
Mean Motion14.95158852
Decay Rate5.6E-07
L11 43804U 18099AY 19017.79171697 .00000056 00000-0 10334-4 0 9997
L22 43804 97.7605 91.4926 0016657 114.4787 245.8172 14.95158852 6736

Live tracking and technical data element details for Suomi 100 (NORAD 43804). Suomi 100 can be tracked NOW for your location showing map with azimuth and elevation plus other details from your city location.

Track the satellite on the map from your city or location and see movement details for azimuth, elevation, latitude, longitude, range, height, and movement on the map or in text.







IsCatalogInMostPopularTable: catalog: 43804, numindb: 42
Update: records affected: 1



GetName: 43804 Suomi 100

Hit Count: updated at: Wed, 23 Jan 2019 03:19:38 GMT